| time (UTC) | temp F | wind direction | speed knots | gust knots | rain 1hr in | rain 24hr in | rain mn in | humidity % | barometer mb |
| 20260507030909 | 46 | 40 | 0.0 | 0.9 | 0.00 | 0.17 | 0.17 | 99 | 1012.4 |
| 20260507030406 | 47 | 40 | 0.0 | 0.0 | 0.00 | 0.17 | 0.17 | 99 | 1012.3 |
| 20260507025903 | 47 | 41 | 0.9 | 0.9 | 0.00 | 0.17 | 0.17 | 99 | 1012.4 |
| 20260507025401 | 47 | 40 | 0.0 | 0.9 | 0.00 | 0.17 | 0.17 | 99 | 1012.6 |
| 20260507024858 | 47 | 40 | 0.0 | 0.0 | 0.00 | 0.17 | 0.17 | 99 | 1012.6 |
| 20260507024355 | 47 | 40 | 0.0 | 0.0 | 0.00 | 0.17 | 0.17 | 99 | 1012.3 |
| 20260507023851 | 47 | 40 | 0.0 | 0.9 | 0.00 | 0.17 | 0.17 | 99 | 1012.5 |
| 20260507023348 | 47 | 9 | 0.0 | 0.0 | 0.00 | 0.17 | 0.17 | 99 | 1012.8 |
| 20260507022845 | 47 | 9 | 0.0 | 0.0 | 0.00 | 0.17 | 0.17 | 99 | 1013.1 |
| 20260507022342 | 47 | 8 | 0.0 | 0.0 | 0.00 | 0.17 | 0.17 | 99 | 1013.0 |
| 20260507021838 | 47 | 8 | 0.0 | 0.0 | 0.00 | 0.17 | 0.17 | 99 | 1013.0 |
| 20260507021333 | 47 | 7 | 0.9 | 0.9 | 0.00 | 0.17 | 0.17 | 99 | 1013.1 |
| 20260507020831 | 47 | 45 | 0.0 | 0.9 | 0.00 | 0.17 | 0.17 | 99 | 1012.7 |
| 20260507020328 | 47 | 45 | 0.0 | 0.9 | 0.00 | 0.17 | 0.17 | 99 | 1012.7 |
| 20260507015825 | 47 | 29 | 0.0 | 0.0 | 0.00 | 0.17 | 0.17 | 99 | 1013.6 |
| 20260507015323 | 47 | 29 | 0.0 | 0.9 | 0.00 | 0.17 | 0.17 | 99 | 1013.4 |
| 20260507014820 | 47 | 29 | 0.0 | 0.0 | 0.00 | 0.17 | 0.17 | 99 | 1013.2 |
| 20260507014316 | 47 | 29 | 0.0 | 0.0 | 0.00 | 0.17 | 0.17 | 99 | 1013.0 |
| 20260507013812 | 48 | 30 | 0.0 | 0.9 | 0.00 | 0.17 | 0.17 | 98 | 1013.1 |
| 20260507013310 | 48 | 29 | 0.0 | 0.0 | 0.00 | 0.17 | 0.17 | 98 | 1013.3 |
| 20260507012807 | 48 | 29 | 0.0 | 0.0 | 0.00 | 0.17 | 0.17 | 98 | 1012.9 |
| 20260507012306 | 48 | 29 | 0.0 | 0.0 | 0.00 | 0.17 | 0.17 | 98 | 1012.8 |
| 20260507011800 | 48 | 29 | 0.0 | 0.0 | 0.00 | 0.17 | 0.17 | 97 | 1012.6 |
| 20260507011257 | 49 | 29 | 0.0 | 0.9 | 0.00 | 0.17 | 0.17 | 97 | 1013.0 |
| 20260507010756 | 49 | 29 | 0.0 | 0.9 | 0.00 | 0.17 | 0.17 | 97 | 1012.9 |
| 20260507010252 | 48 | 29 | 0.0 | 0.0 | 0.00 | 0.17 | 0.17 | 97 | 1013.0 |
| 20260507005750 | 49 | 29 | 0.0 | 0.0 | 0.00 | 0.17 | 0.17 | 97 | 1012.9 |
| 20260507005246 | 49 | 29 | 0.0 | 0.0 | 0.00 | 0.17 | 0.17 | 96 | 1012.9 |
| 20260507004743 | 49 | 29 | 0.0 | 0.0 | 0.00 | 0.17 | 0.17 | 96 | 1012.8 |
| 20260507004241 | 49 | 29 | 0.0 | 0.0 | 0.00 | 0.17 | 0.17 | 95 | 1012.7 |
| 20260507003737 | 49 | 29 | 0.0 | 0.0 | 0.00 | 0.17 | 0.17 | 95 | 1012.5 |
| 20260507003232 | 49 | 29 | 0.0 | 0.9 | 0.00 | 0.17 | 0.17 | 96 | 1012.4 |
| 20260507002728 | 49 | 29 | 0.0 | 0.0 | 0.00 | 0.17 | 0.17 | 96 | 1012.5 |
| 20260507002224 | 49 | 29 | 0.0 | 0.0 | 0.00 | 0.17 | 0.17 | 96 | 1012.5 |
| 20260507001721 | 49 | 28 | 0.0 | 0.0 | 0.00 | 0.17 | 0.17 | 96 | 1012.4 |
| 20260507001219 | 49 | 29 | 0.9 | 0.9 | 0.00 | 0.17 | 0.17 | 96 | 1012.3 |
| 20260507000715 | 50 | 26 | 0.0 | 0.0 | 0.00 | 0.17 | 0.17 | 95 | 1012.0 |
| 20260507000212 | 50 | 354 | 0.0 | 0.0 | 0.00 | 0.17 | 0.17 | 95 | 1012.0 |
| 20260506235708 | 49 | 353 | 0.0 | 0.0 | 0.00 | 0.17 | 0.17 | 94 | 1012.1 |
| 20260506235203 | 50 | 3 | 0.9 | 0.9 | 0.00 | 0.17 | 0.17 | 93 | 1011.9 |
| 20260506234700 | 50 | 8 | 0.9 | 0.9 | 0.00 | 0.17 | 0.17 | 93 | 1011.5 |
| 20260506234157 | 50 | 10 | 0.9 | 0.9 | 0.00 | 0.17 | 0.17 | 93 | 1011.9 |
| 20260506233655 | 50 | 23 | 0.9 | 0.9 | 0.00 | 0.17 | 0.17 | 94 | 1011.9 |
| 20260506233151 | 50 | 23 | 0.0 | 0.0 | 0.00 | 0.17 | 0.17 | 94 | 1011.8 |
| 20260506232648 | 50 | 23 | 0.0 | 0.0 | 0.00 | 0.17 | 0.17 | 93 | 1011.9 |
| 20260506232143 | 50 | 23 | 0.0 | 0.9 | 0.00 | 0.17 | 0.17 | 93 | 1011.8 |
| 20260506231640 | 50 | 10 | 0.0 | 0.9 | 0.00 | 0.17 | 0.17 | 93 | 1011.7 |
| 20260506231139 | 50 | 19 | 0.9 | 0.9 | 0.00 | 0.17 | 0.17 | 93 | 1011.7 |
| 20260506230635 | 50 | 18 | 0.9 | 1.7 | 0.00 | 0.17 | 0.17 | 92 | 1011.9 |
| 20260506230131 | 50 | 19 | 0.9 | 1.7 | 0.00 | 0.17 | 0.17 | 92 | |
| 20260506182257 | 54 | 341 | 1.7 | 4.3 | 0.00 | 0.13 | 0.13 | 95 | 1007.8 |
| 20260506181755 | 54 | 341 | 1.7 | 4.3 | 0.00 | 0.13 | 0.13 | 95 | 1007.8 |
| 20260506181253 | 54 | 9 | 1.7 | 7.0 | 0.00 | 0.13 | 0.13 | 95 | 1008.0 |
| 20260506180750 | 55 | 339 | 0.9 | 7.0 | 0.00 | 0.13 | 0.13 | 94 | 1007.9 |
| 20260506180246 | 57 | 341 | 0.9 | 7.0 | 0.00 | 0.13 | 0.13 | 93 | 1007.5 |
| 20260506175742 | 59 | 303 | 0.9 | 2.6 | 0.00 | 0.13 | 0.13 | 92 | 1007.4 |
| 20260506175239 | 63 | 21 | 0.9 | 4.3 | 0.00 | 0.13 | 0.13 | 91 | 1007.1 |
| 20260506174737 | 63 | 320 | 2.6 | 4.3 | 0.00 | 0.13 | 0.13 | 88 | 1006.8 |
| 20260506174233 | 63 | 327 | 1.7 | 4.3 | 0.00 | 0.13 | 0.13 | 90 | 1006.8 |
| 20260506173731 | 63 | 342 | 2.6 | 5.2 | 0.00 | 0.13 | 0.13 | 88 | 1006.9 |
| 20260506173222 | 63 | 163 | 5.2 | 6.1 | 0.00 | 0.13 | 0.13 | 91 | 1006.9 |
| 20260506172719 | 62 | 254 | 1.7 | 2.6 | 0.00 | 0.13 | 0.13 | 89 | 1006.9 |
| 20260506172215 | 63 | 207 | 2.6 | 2.6 | 0.00 | 0.13 | 0.13 | 90 | 1007.0 |
| 20260506171713 | 62 | 299 | 1.7 | 4.3 | 0.00 | 0.13 | 0.13 | 90 | 1006.9 |
| 20260506171210 | 62 | 348 | 0.9 | 2.6 | 0.00 | 0.13 | 0.13 | 91 | 1006.9 |
| 20260506170708 | 61 | 201 | 1.7 | 4.3 | 0.00 | 0.13 | 0.13 | 91 | 1006.9 |
| 20260506170204 | 61 | 48 | 0.9 | 1.7 | 0.00 | 0.13 | 0.13 | 94 | 1007.2 |
| 20260506165703 | 61 | 0 | 1.7 | 2.6 | 0.00 | 0.13 | 0.13 | 95 | 1007.2 |
| 20260506165159 | 61 | 353 | 0.9 | 0.9 | 0.00 | 0.13 | 0.13 | 96 | 1007.2 |
| 20260506164656 | 61 | 332 | 0.0 | 0.9 | 0.00 | 0.13 | 0.13 | 94 | 1007.3 |
| 20260506164154 | 61 | 2 | 0.0 | 0.9 | 0.00 | 0.13 | 0.13 | 95 | 1007.3 |
| 20260506163650 | 61 | 344 | 0.9 | 1.7 | 0.00 | 0.13 | 0.13 | 95 | 1007.2 |
| 20260506163145 | 60 | 39 | 0.0 | 0.9 | 0.00 | 0.13 | 0.13 | 95 | 1007.3 |
| 20260506162641 | 61 | 48 | 0.9 | 0.9 | 0.00 | 0.13 | 0.13 | 97 | 1007.4 |
| 20260506162139 | 60 | 38 | 1.7 | 1.7 | 0.00 | 0.13 | 0.13 | 97 | 1007.4 |
| 20260506161636 | 60 | 13 | 0.0 | 0.0 | 0.00 | 0.13 | 0.13 | 97 | 1007.4 |
| 20260506161133 | 60 | 49 | 0.9 | 2.6 | 0.00 | 0.13 | 0.13 | 97 | 1007.3 |
| 20260506160630 | 60 | 93 | 1.7 | 5.2 | 0.00 | 0.13 | 0.13 | 97 | 1007.4 |
| 20260506160127 | 59 | 313 | 1.7 | 4.3 | 0.00 | 0.13 | 0.13 | 97 | 1007.4 |
| 20260506155626 | 59 | 27 | 0.9 | 2.6 | 0.00 | 0.13 | 0.13 | 99 | 1007.3 |
| 20260506155122 | 59 | 21 | 0.0 | 0.9 | 0.00 | 0.13 | 0.13 | 99 | 1007.4 |
| 20260506153219 | 59 | 319 | 0.9 | 1.7 | 0.00 | 0.13 | 0.13 | 99 | 1007.3 |
| 20260506152715 | 59 | 3 | 0.0 | 0.9 | 0.00 | 0.13 | 0.13 | 99 | 1007.6 |
| 20260506152213 | 58 | 26 | 0.0 | 1.7 | 0.00 | 0.13 | 0.13 | 99 | 1007.5 |
| 20260506151712 | 58 | 205 | 2.6 | 4.3 | 0.00 | 0.13 | 0.13 | 99 | 1007.4 |
| 20260506151208 | 58 | 38 | 0.0 | 0.9 | 0.00 | 0.13 | 0.13 | 99 | 1007.5 |
| 20260506150704 | 58 | 282 | 1.7 | 1.7 | 0.07 | 0.13 | 0.13 | 99 | 1007.4 |
| 20260506150202 | 58 | 30 | 0.0 | 0.9 | 0.07 | 0.13 | 0.13 | 99 | 1007.5 |
| 20260506145659 | 58 | 31 | 0.9 | 1.7 | 0.00 | 0.12 | 0.12 | 99 | 1007.5 |
| 20260506145155 | 58 | 314 | 0.9 | 1.7 | 0.00 | 0.12 | 0.12 | 99 | 1007.3 |
| 20260506144653 | 58 | 38 | 0.9 | 0.9 | 0.00 | 0.12 | 0.12 | 99 | 1007.2 |
| 20260506144149 | 58 | 64 | 0.0 | 0.9 | 0.00 | 0.12 | 0.12 | 99 | 1007.3 |
| 20260506143647 | 58 | 8 | 0.0 | 0.9 | 0.00 | 0.12 | 0.12 | 99 | 1007.2 |
| 20260506143145 | 57 | 46 | 0.0 | 0.9 | 0.00 | 0.12 | 0.12 | 99 | 1007.3 |
| 20260506142643 | 58 | 55 | 0.9 | 2.6 | 0.00 | 0.12 | 0.12 | 99 | 1007.3 |
| 20260506142141 | 57 | 50 | 0.0 | 0.9 | 0.00 | 0.12 | 0.12 | 99 | 1007.3 |
| 20260506141638 | 58 | 41 | 0.0 | 0.9 | 0.00 | 0.12 | 0.12 | 99 | 1007.4 |
| 20260506141136 | 58 | 41 | 0.0 | 0.0 | 0.05 | 0.12 | 0.12 | 99 | 1007.4 |
| 20260506140633 | 57 | 41 | 0.0 | 0.0 | 0.05 | 0.12 | 0.12 | 99 | 1007.5 |
| 20260506140131 | 57 | 1 | 0.0 | 0.9 | 0.00 | 0.11 | 0.11 | 99 | 1007.6 |
| 20260506135628 | 57 | 1 | 0.0 | 0.0 | 0.00 | 0.11 | 0.11 | 99 | 1007.4 |
| 20260506135124 | 57 | 1 | 0.0 | 0.9 | 0.00 | 0.11 | 0.11 | 99 | 1007.3 |
| 20260506134620 | 57 | 0 | 0.9 | 0.9 | 0.00 | 0.11 | 0.11 | 99 | 1007.5 |
| 20260506134116 | 57 | 28 | 0.0 | 0.9 | 0.00 | 0.11 | 0.11 | 99 | 1007.3 |
| 20260506133614 | 57 | 340 | 0.0 | 0.0 | 0.00 | 0.11 | 0.11 | 99 | 1007.5 |
| 20260506133110 | 56 | 338 | 0.9 | 0.9 | 0.00 | 0.11 | 0.11 | 99 | 1007.7 |
| 20260506132608 | 56 | 17 | 0.0 | 0.9 | 0.07 | 0.11 | 0.11 | 99 | 1007.4 |
| 20260506132105 | 56 | 65 | 1.7 | 1.7 | 0.07 | 0.11 | 0.11 | 99 | 1007.3 |
| 20260506131602 | 56 | 60 | 0.9 | 1.7 | 0.00 | 0.10 | 0.10 | 99 | 1007.5 |
| 20260506131058 | 55 | 50 | 0.0 | 0.9 | 0.05 | 0.10 | 0.10 | 99 | 1007.8 |
| 20260506130555 | 55 | 10 | 0.0 | 0.0 | 0.05 | 0.10 | 0.10 | 99 | 1007.9 |
| 20260506130053 | 55 | 10 | 0.0 | 0.9 | 0.07 | 0.09 | 0.09 | 99 | 1008.4 |
| 20260506125551 | 55 | 9 | 0.0 | 0.9 | 0.14 | 0.09 | 0.09 | 99 | 1008.3 |
| 20260506125048 | 55 | 10 | 0.0 | 0.9 | 0.12 | 0.08 | 0.08 | 99 | 1008.3 |
| 20260506124546 | 55 | 11 | 0.9 | 0.9 | 0.05 | 0.07 | 0.07 | 99 | 1008.3 |
| 20260506124044 | 55 | 22 | 0.0 | 0.9 | 0.07 | 0.06 | 0.06 | 99 | 1008.1 |
| 20260506123541 | 55 | 22 | 0.0 | 0.0 | 0.07 | 0.06 | 0.06 | 99 | 1008.3 |
| 20260506123040 | 55 | 22 | 0.0 | 0.9 | 0.05 | 0.05 | 0.05 | 99 | 1008.2 |
| 20260506122535 | 54 | 22 | 0.0 | 0.0 | 0.05 | 0.05 | 0.05 | 99 | 1008.3 |
| 20260506122034 | 54 | 25 | 0.0 | 0.0 | 0.07 | 0.04 | 0.04 | 99 | 1008.3 |
| 20260506121531 | 54 | 27 | 0.0 | 0.0 | 0.12 | 0.04 | 0.04 | 99 | 1008.1 |
| 20260506121027 | 54 | 26 | 0.0 | 0.0 | 0.05 | 0.03 | 0.03 | 99 | 1008.3 |
| 20260506120525 | 54 | 26 | 0.0 | 0.0 | 0.00 | 0.02 | 0.02 | 99 | 1008.3 |
| 20260506120022 | 54 | 26 | 0.0 | 0.0 | 0.07 | 0.02 | 0.02 | 99 | 1008.1 |
| 20260506115520 | 54 | 26 | 0.0 | 0.0 | 0.07 | 0.02 | 0.02 | 99 | 1008.1 |
| 20260506115019 | 54 | 20 | 0.0 | 0.9 | 0.00 | 0.01 | 0.01 | 99 | 1008.0 |
| 20260506114515 | 54 | 20 | 0.0 | 0.9 | 0.00 | 0.01 | 0.01 | 99 | 1008.1 |
| 20260506114014 | 54 | 17 | 0.0 | 0.9 | 0.00 | 0.01 | 0.01 | 99 | 1008.1 |
| 20260506113511 | 54 | 18 | 0.0 | 0.9 | 0.00 | 0.01 | 0.01 | 99 | 1008.0 |
| 20260506113009 | 54 | 18 | 0.0 | 0.9 | 0.00 | 0.01 | 0.01 | 99 | 1008.1 |
| 20260506112505 | 54 | 17 | 0.0 | 0.0 | 0.00 | 0.01 | 0.01 | 99 | 1008.3 |
| 20260506112003 | 54 | 18 | 0.0 | 0.0 | 0.00 | 0.01 | 0.01 | 99 | 1008.2 |
| 20260506111501 | 54 | 17 | 0.0 | 0.0 | 0.00 | 0.01 | 0.01 | 99 | 1008.4 |
| 20260506110957 | 53 | 17 | 0.0 | 0.0 | 0.00 | 0.01 | 0.01 | 99 | 1008.7 |
| 20260506110455 | 53 | 17 | 0.0 | 0.0 | 0.00 | 0.01 | 0.01 | 99 | 1008.5 |
| 20260506105951 | 53 | 358 | 0.9 | 0.9 | 0.00 | 0.01 | 0.01 | 99 | 1008.3 |
| 20260506105448 | 53 | 26 | 0.0 | 0.9 | 0.00 | 0.01 | 0.01 | 99 | 1008.0 |
| 20260506104945 | 53 | 27 | 0.0 | 0.0 | 0.00 | 0.01 | 0.01 | 99 | 1008.2 |
| 20260506104443 | 53 | 27 | 0.0 | 0.0 | 0.00 | 0.01 | 0.01 | 99 | 1008.2 |
| 20260506103941 | 53 | 25 | 0.0 | 0.9 | 0.00 | 0.01 | 0.01 | 99 | 1008.1 |
| 20260506103438 | 53 | 26 | 0.0 | 0.9 | 0.00 | 0.01 | 0.01 | 99 | 1008.1 |
| 20260506102935 | 53 | 25 | 0.0 | 0.0 | 0.00 | 0.01 | 0.01 | 99 | 1008.1 |
| 20260506102433 | 53 | 25 | 0.0 | 0.0 | 0.00 | 0.01 | 0.01 | 99 | 1008.3 |
| 20260506101930 | 53 | 25 | 0.0 | 0.0 | 0.00 | 0.01 | 0.01 | 99 | 1008.5 |
| 20260506101426 | 53 | 25 | 0.0 | 0.0 | 0.00 | 0.01 | 0.01 | 99 | 1008.4 |
| 20260506100924 | 53 | 25 | 0.0 | 0.0 | 0.00 | 0.01 | 0.01 | 99 | 1008.3 |
| 20260506100422 | 53 | 26 | 0.0 | 0.0 | 0.00 | 0.01 | 0.01 | 99 | 1008.1 |
| 20260506095920 | 53 | 25 | 0.0 | 0.0 | 0.00 | 0.01 | 0.01 | 99 | 1008.2 |
| 20260506095418 | 53 | 25 | 0.0 | 0.0 | 0.05 | 0.01 | 0.01 | 99 | 1008.1 |
| 20260506094914 | 53 | 25 | 0.0 | 0.0 | 0.05 | 0.01 | 0.01 | 99 | 1008.1 |
| 20260506094413 | 53 | 25 | 0.0 | 0.0 | 0.00 | 0.00 | 0.00 | 99 | 1007.8 |
| 20260506093910 | 53 | 25 | 0.0 | 0.0 | 0.00 | 0.00 | 0.00 | 99 | 1008.0 |
| 20260506093407 | 53 | 25 | 0.0 | 0.0 | 0.00 | 0.00 | 0.00 | 99 | 1007.9 |
| 20260506092905 | 53 | 25 | 0.0 | 0.0 | 0.00 | 0.00 | 0.00 | 99 | 1007.8 |
| 20260506092403 | 53 | 25 | 0.0 | 0.0 | 0.00 | 0.00 | 0.00 | 99 | 1007.9 |
| 20260506091859 | 53 | 25 | 0.0 | 0.0 | 0.00 | 0.00 | 0.00 | 99 | 1008.1 |
| 20260506091357 | 53 | 25 | 0.0 | 0.0 | 0.00 | 0.00 | 0.00 | 99 | 1008.0 |
| 20260506090854 | 53 | 25 | 0.0 | 0.0 | 0.00 | 0.00 | 0.00 | 99 | 1008.2 |
| 20260506090352 | 53 | 25 | 0.0 | 0.0 | 0.00 | 0.00 | 0.00 | 99 | 1008.0 |
| 20260506085848 | 54 | 25 | 0.0 | 0.0 | 0.00 | 0.00 | 0.00 | 99 | 1008.2 |
| 20260506085345 | 54 | 25 | 0.0 | 0.0 | 0.00 | 0.00 | 0.00 | 99 | 1008.3 |
| 20260506084841 | 54 | 26 | 0.0 | 0.0 | 0.00 | 0.00 | 0.00 | 99 | 1008.4 |
| 20260506084338 | 54 | 26 | 0.9 | 0.9 | 0.00 | 0.00 | 0.00 | 98 | 1008.1 |
| 20260506083835 | 54 | 19 | 0.0 | 0.0 | 0.00 | 0.00 | 0.00 | 97 | 1008.5 |
| 20260506083332 | 54 | 19 | 0.0 | 0.0 | 0.00 | 0.00 | 0.00 | 97 | 1008.7 |
| 20260506082830 | 54 | 19 | 0.0 | 0.9 | 0.00 | 0.00 | 0.00 | 96 | 1008.5 |
| 20260506082326 | 54 | 17 | 0.0 | 0.9 | 0.00 | 0.00 | 0.00 | 96 | 1008.7 |
| 20260506081822 | 55 | 17 | 0.0 | 0.0 | 0.00 | 0.00 | 0.00 | 95 | 1008.8 |
| 20260506081320 | 55 | 21 | 0.0 | 0.0 | 0.00 | 0.00 | 0.00 | 95 | 1008.9 |
| 20260506080818 | 55 | 21 | 0.0 | 0.0 | 0.00 | 0.00 | 0.00 | 94 | 1008.9 |
| 20260506080314 | 55 | 21 | 0.0 | 0.0 | 0.00 | 0.00 | 0.00 | 94 | 1008.7 |
| 20260506073258 | 55 | 23 | 0.0 | 0.9 | 0.00 | 0.00 | 0.00 | 93 | 1008.7 |
| 20260506072755 | 55 | 18 | 0.0 | 0.9 | 0.00 | 0.00 | 0.00 | 94 | 1008.2 |
| 20260506072252 | 55 | 18 | 0.0 | 1.7 | 0.00 | 0.00 | 0.00 | 95 | 1008.2 |
| 20260506071750 | 54 | 20 | 0.9 | 1.7 | 0.00 | 0.00 | 0.00 | 96 | 1008.2 |
| 20260506071248 | 54 | 5 | 0.0 | 0.0 | 0.00 | 0.00 | 0.00 | 96 | 1008.3 |
| 20260506070744 | 54 | 5 | 0.0 | 0.9 | 0.00 | 0.00 | 0.00 | 96 | 1008.4 |
| 20260506070241 | 55 | 5 | 0.9 | 0.9 | 0.00 | 0.00 | 0.00 | 96 | 1008.2 |
| 20260506062218 | 55 | 5 | 0.0 | 0.0 | 0.00 | 0.00 | 0.00 | 95 | 1008.8 |
| 20260506061714 | 55 | 5 | 0.0 | 0.0 | 0.00 | 0.00 | 0.00 | 94 | 1009.0 |
| 20260506061212 | 55 | 5 | 0.0 | 0.0 | 0.00 | 0.00 | 0.00 | 94 | 1009.1 |
| 20260506060711 | 56 | 5 | 0.0 | 0.0 | 0.00 | 0.00 | 0.00 | 94 | 1009.2 |
| 20260506060207 | 56 | 5 | 0.0 | 0.0 | 0.00 | 0.00 | 0.00 | 93 | 1009.2 |
| 20260506051139 | 55 | 23 | 0.0 | 0.9 | 0.00 | 0.00 | 0.00 | 94 | 1009.8 |
| 20260506050638 | 56 | 22 | 0.0 | 0.0 | 0.00 | 0.00 | 0.00 | 94 | 1009.9 |
| 20260506050134 | 56 | 22 | 0.0 | 0.0 | 0.00 | 0.00 | 0.00 | 93 | 1009.8 |
| 20260506045127 | 57 | 23 | 0.0 | 0.0 | 0.00 | 0.00 | 0.00 | 93 | 1010.0 |
| 20260506044625 | 57 | 22 | 0.0 | 0.9 | 0.00 | 0.00 | 0.00 | 93 | 1010.0 |
| 20260506044122 | 57 | 8 | 0.9 | 1.7 | 0.00 | 0.00 | 0.00 | 93 | 1009.9 |
| 20260506043619 | 57 | 52 | 0.9 | 1.7 | 0.00 | 0.00 | 0.00 | 92 | 1009.9 |
| 20260506043117 | 57 | 10 | 0.9 | 2.6 | 0.00 | 0.00 | 0.00 | 93 | 1009.9 |
| 20260506042616 | 57 | 25 | 0.9 | 0.9 | 0.00 | 0.00 | 0.00 | 94 | 1009.8 |
| 20260506042114 | 57 | 1 | 0.0 | 0.9 | 0.00 | 0.00 | 0.00 | 94 | 1009.7 |
| 20260506041612 | 57 | 2 | 0.0 | 0.9 | 0.00 | 0.00 | 0.00 | 94 | 1009.8 |
| 20260506041108 | 57 | 2 | 0.0 | 0.0 | 0.00 | 0.00 | 0.00 | 93 | 1009.8 |
| 20260506040607 | 57 | 2 | 0.0 | 0.9 | 0.00 | 0.00 | 0.00 | 93 | 1010.0 |
| 20260506035600 | 58 | 1 | 0.0 | 0.9 | 0.00 | 0.01 | 0.01 | 92 | 1010.1 |
| 20260506035056 | 58 | 3 | 0.0 | 0.0 | 0.00 | 0.01 | 0.01 | 91 | 1010.2 |
| 20260506034553 | 59 | 3 | 0.0 | 0.9 | 0.00 | 0.01 | 0.01 | 90 | 1010.3 |
| 20260506034050 | 59 | 1 | 0.9 | 0.9 | 0.00 | 0.01 | 0.01 | 90 | 1010.2 |
| 20260506033548 | 59 | 359 | 0.0 | 0.9 | 0.00 | 0.01 | 0.01 | 89 | 1010.3 |
| 20260506033044 | 60 | 21 | 0.0 | 4.3 | 0.00 | 0.01 | 0.01 | 90 | 1010.1 |
| 20260506032542 | 60 | 1 | 1.7 | 2.6 | 0.00 | 0.01 | 0.01 | 90 | 1010.1 |
| 20260506032038 | 60 | 11 | 0.9 | 4.3 | 0.00 | 0.01 | 0.01 | 91 | 1010.2 |
| 20260506031536 | 60 | 33 | 0.9 | 2.6 | 0.00 | 0.01 | 0.01 | 92 | 1010.2 |